Location: Fond Mahaut
(18.0707°N, 63.0465°W)
Time: 00:16:48
(UTC+00:00)

Cosmos 1943 - Pass Details

Date: 08 December 2019
Orbit: 834 x 849 km, 71.0° (Epoch: 27 January)

Event Time Altitude Azimuth Distance (km) Brightness Sun altitude
Rises 22:34:41 0° 169° (S) 3,390 6.5 -13.7°
Reaches altitude 10° 22:37:33 10° 156° (SSE) 2,455 5.6 -14.3°
Maximum altitude 22:42:02 25° 103° (ESE) 1,646 4.2 -15.3°
Enters shadow 22:43:16 23° 83° (E) 1,720 4.2 -15.6°
